Tracking 29892 objects as of 21-Nov-2024
HD Live streaming from Space Station
objects crossing your sky now

ONEWEB-0227

Track ONEWEB-0227 now!
10-day predictions
ONEWEB-0227 is classified as:


NORAD ID: 48792
Int'l Code: 2021-045AB
Perigee: 1,207.6 km
Apogee: 1,210.2 km
Inclination: 87.9 °
Period: 109.5 minutes
Semi major axis: 7579 km
RCS: Unknown
Launch date: May 28, 2021
Source: United Kingdom (UK)
Launch site: VOSTOCHNY COSMODROME (VOSTO)
Your satellite tracking list
Your tracking list is empty




NASA's NSSDC Master Catalog

Two Line Element Set (TLE):
1 48792U 21045AB  24325.58472795 -.00000260  00000-0 -72596-3 0  9997
2 48792  87.9092  13.3885 0001738  92.2456 267.8873 13.15548055170097
Source of the keplerian elements: AFSPC